KOQT  Oak Ridge Airport

Add Bookmark

Tennessee, United States

Status
Operational
Latitude Longitude
36° 1' 12" N 84° 13' 48" W
36.020000 -84.230000
Local (DST -4) UTC (GMT -5)
Nov 25, 2014 05:57 Nov 25, 2014 22:57
Sunrise-Sunset Local UTC
Begin Civil Twilight 06:54 11:54
Sunrise 07:22 12:22
Sunset 05:25 22:25
End Civil Twilight 05:53 22:53

Current Weather

METAR Observed VFR
KOQT 252153Z AUTO 00000KT 10SM CLR 13/M03 A3006 Tue, Nov 25, 2014 @ 21:53 UTC
(1 Hour, 4 Minutes ago)
Visual Flight Rules
Wind Visibility Clouds Conditions
Calm 10 statute miles
  • Clear skies
  • No significant weather
Temperatures Readings Precipitation
Current Temp 13°C (55°F)
Dewpoint -3°C (27°F)
Humidity 33%
Altimeter 30.06"Hg
Sea Level Pressure 1018.2mb
Field Elevation 908.79'
None Recorded

Additional weather within a 50nm radius of KOQT

Map ICAO Location
KTYS 17nm S (137°)
KGKT 35.4nm E (106°)
KMMI 40.6nm S (204°)
KCSV 41.7nm W (265°)
KMOR 42.5nm E (077°)
1A6 42.7nm N (034°)

24 Hour Weather History

Loading
-

24 Hour Weather Graphs

Loading
-

CheckWX.com is intended as a tool to help pilots better visualize weather data. It is not intended as a substitute for an official weather briefing obtained from a Flight Service Station. CheckWX.com does not meet the FAA requirements for an official pre-flight weather briefing. Therefore, it's important that pilots still call and obtain an official FSS pre-flight weather briefing.